Location: Mentone
(34.5413°N, 85.5351°W)
Time: 17:17:27
(UTC-05:00)

Centaur AC-72 - Visible Passes

Search period start: 29 May 2015 00:00
Search period end: 08 June 2015 00:00
Orbit: 1086 x 35270 km, 18.9° (Epoch: 29 May)

Date Brightness Start Highest point End Pass type
(mag) Time Alt. Az. Time Alt. Az. Time Alt. Az.
29 May 4.6 20:18:54 10° SW 20:29:53 20° S 20:35:04 10° SE visible
31 May 5.5 04:47:46 10° WSW 05:03:58 36° S 14:40:21 10° SE visible
01 Jun 5.0 02:04:07 31° SSE 02:04:07 31° SSE 02:23:58 10° ESE visible
02 Jun 4.6 20:01:54 10° SW 20:14:03 21° S 20:19:29 10° SE visible
04 Jun 5.5 04:32:36 12° WSW 04:47:53 35° S 14:24:53 10° SE visible
05 Jun 5.2 01:49:19 28° SSE 01:49:19 28° SSE 02:06:25 10° ESE visible
05 Jun 4.7 22:47:57 10° SW 22:48:54 13° SW 22:48:54 13° SW visible
